Retour au catalogue

BREEZE-M DEB

LostHEO
NORAD 32492·DEBRIS·🇷🇺 Russia

Lancé Feb 28, 2006 depuis Baikonur Cosmodrome

Loading…

Prochains Passages (prochaines 24 heures)

TLE

PériméSource: Space-Track

Époque: Apr 9, 2023, 21:37 UTC

1 32492U 06006AF  23099.90081075  .00002583  00000-0  84214-2 0  9994
2 32492  51.4047 271.0348 4964498 189.2224 348.3130  5.32872747311440

Suivez BREEZE-M DEB en temps réel avec AllMySat

Download on the App Store